Temperature
18 18 18 18 18 18 18 18 18 18 18 18 18 18 18 17 17 17 17 17 17 17 17 17 17 17 17 17 17 17 17 16 16 16 16 16 16 15 15 15 15 15 15
18 18 18 18 18 18 18 18 18 18 18 18 18 18 18 17 17 17 17 17 17 17 17 17 17 17 17 17 17 17 16 16 16 16 16 16 16 15 15 15 15 15 15
18 18 18 18 18 18 18 18 18 18 18 18 18 18 18 18 18 18 17 17 17 18 17 17 17 17 17 17 17 17 17 16 16 16 16 16 16 15 15 15 14 14 14
18 18 18 18 18 18 18 18 18 18 18 18 18 18 18 18 18 18 18 18 18 18 18 18 17 17 17 17 17 17 17 17 16 16 16 16 16 15 15 15 15 14 14
18 18 18 18 18 18 18 18 18 18 18 18 18 18 18 18 19 18 18 18 19 18 18 18 18 18 18 18 18 17 17 17 16 16 16 16 16 16 15 15 15 14 14
18 18 18 18 18 18 18 18 18 18 18 18 18 18 18 19 19 19 18 19 18 18 18 18 18 18 18 18 18 17 17 17 16 16 16 16 16 16 15 15 15 14 14
18 17 17 17 17 17 17 17 17 17 18 18 17 18 18 18 19 19 19 19 19 18 18 18 18 18 18 18 18 17 17 16 16 16 16 16 16 16 15 15 15 14 14
17 17 17 17 17 17 17 17 17 17 17 17 17 17 17 18 19 19 19 19 19 18 18 18 18 18 18 18 18 17 17 17 16 16 16 16 16 16 15 15 15 15 14
17 17 17 17 17 17 17 17 17 16 17 17 17 17 17 18 18 19 19 19 18 18 18 18 18 18 18 18 17 17 17 17 16 16 16 16 16 16 15 15 15 15 14
17 17 17 17 17 16 16 16 16 16 16 17 17 17 17 17 17 17 18 18 18 18 18 18 18 18 18 17 17 17 17 17 17 16 16 16 16 15 15 15 15 15 14
17 17 16 16 16 16 16 16 16 16 16 16 17 17 17 17 17 16 17 18 18 18 18 18 17 18 18 17 17 17 17 17 17 17 17 16 16 15 15 15 15 15 14
16 16 16 16 16 15 15 15 16 16 16 16 16 16 16 16 16 16 16 17 17 17 17 17 17 17 18 17 17 17 17 17 17 17 17 16 16 15 15 15 15 14 14
15 15 15 15 15 15 15 15 15 15 15 16 16 16 16 16 16 16 16 16 16 17 17 17 17 17 17 17 17 17 17 17 17 17 16 16 16 15 15 15 14 14 13
15 15 14 14 14 14 14 14 14 15 15 15 15 15 15 15 15 15 15 15 15 16 16 16 17 17 17 17 17 16 16 17 17 16 16 16 16 15 15 14 14 13 13
14 14 14 14 14 14 14 14 14 14 14 14 14 14 14 14 14 14 15 15 14 14 15 16 16 16 16 16 16 16 16 16 16 16 16 15 15 15 14 14 13 13 13
14 14 14 14 14 14 14 13 14 14 14 14 13 14 14 14 14 14 14 14 14 14 14 16 16 16 16 16 16 16 16 16 16 15 15 15 14 14 14 14 13 13 14
13 13 13 13 13 13 13 13 13 13 13 13 13 13 13 14 14 14 14 14 14 14 15 16 16 16 15 16 16 15 15 15 15 15 14 14 14 14 14 14 14 14 14
13 13 13 13 13 13 13 13 13 13 13 13 13 13 13 14 14 14 14 14 14 14 15 15 16 16 16 16 15 15 15 15 15 15 15 14 14 14 14 14 14 14 14
12 12 12 12 12 12 12 12 12 12 12 12 12 13 13 13 13 13 13 13 14 14 14 15 15 15 16 16 15 15 15 15 15 15 15 15 15 15 14 14 14 14 14
12 12 12 12 12 12 12 12 12 12 12 12 12 12 12 12 12 12 13 13 13 13 14 14 15 15 15 15 15 15 14 14 14 14 14 14 15 14 14 14 14 14 14
12 12 12 12 12 12 11 11 11 12 12 12 12 12 12 12 11 12 12 12 13 13 13 13 14 14 15 15 15 14 14 14 14 14 14 14 14 14 14 14 14 14 14
12 12 12 12 12 11 11 11 11 11 11 11 11 11 11 11 11 11 11 11 11 12 12 12 13 13 13 14 14 14 14 14 13 14 14 14 14 14 14 14 14 14 14
11 12 12 12 11 11 11 11 11 11 11 11 11 11 11 11 11 11 11 11 11 11 11 11 12 12 12 12 13 13 13 13 13 13 13 13 14 14 14 14 14 14 14
11 11 11 11 11 11 11 11 11 11 11 11 11 11 11 11 11 11 11 11 11 11 11 11 11 11 12 12 12 12 12 12 12 13 13 13 13 13 14 14 14 14 14
11 11 11 11 11 11 11 11 11 11 11 11 11 11 11 11 11 11 11 11 12 12 12 12 11 11 11 11 11 12 12 12 12 12 12 12 13 13 13 13 14 14 14
10 10 10 11 11 11 10 10 10 10 10 11 11 11 11 11 11 11 11 11 11 11 12 12 11 11 11 11 11 11 12 12 12 12 12 12 12 12 12 13 13 13 13
Wind_Speed
6 5 4 6 8 9 8 7 7 7 8 10 12 11 10 12 13 14 14 17 17 17 18 17 17 16 16 16 16 17 17 18 18 18 20 22 24 23 23 22 21 20 18
6 4 4 4 6 9 9 8 7 6 6 6 8 8 8 9 11 12 12 14 16 17 18 18 16 16 16 16 16 17 17 18 18 18 18 21 24 25 25 24 23 22 20
9 6 6 6 6 9 8 7 7 6 6 6 7 8 6 8 9 10 12 12 13 15 17 18 18 17 16 17 17 17 17 18 19 19 19 20 23 26 27 26 25 23 22
11 7 6 6 8 8 5 5 5 5 6 6 6 7 7 6 8 10 11 12 12 12 14 17 18 18 18 18 18 18 18 18 19 20 20 20 23 27 28 28 27 25 23
7 6 5 5 7 5 5 6 6 5 6 7 7 7 7 7 8 8 8 10 12 12 13 15 18 19 18 19 19 19 18 18 18 17 17 19 21 26 29 29 28 27 25
3 4 3 5 5 5 6 6 7 7 6 7 7 6 6 6 6 7 9 6 8 11 13 14 14 15 18 20 19 18 18 17 17 17 16 17 18 24 30 30 30 29 28
4 4 4 6 6 6 8 8 7 8 7 5 4 4 5 7 8 8 8 7 6 8 11 13 13 13 13 17 19 18 18 17 16 16 16 17 18 22 29 31 31 31 30
6 5 6 7 7 7 8 9 8 6 6 5 5 3 3 4 4 5 5 7 7 6 8 11 12 12 13 12 14 16 16 16 15 15 15 16 17 20 27 31 32 32 32
7 7 7 8 8 8 8 9 9 10 8 7 6 5 4 5 3 3 3 4 5 6 8 6 8 11 13 13 13 14 15 14 15 15 16 16 16 18 24 31 32 33 33
7 7 7 8 9 8 9 10 10 8 8 7 5 5 4 4 3 3 3 3 4 7 8 7 7 8 11 10 11 12 12 13 14 16 17 17 16 16 20 29 32 34 34
6 7 7 7 7 7 8 9 8 8 7 7 5 4 4 3 3 4 4 4 4 4 5 6 7 7 9 8 8 8 9 11 13 15 17 18 17 16 18 27 32 35 34
5 7 7 7 6 5 5 5 6 6 5 5 5 4 3 3 3 3 4 3 4 4 5 6 7 7 5 6 7 6 6 9 11 13 15 16 16 15 18 26 33 35 33
4 7 7 6 5 5 4 3 2 1 1 2 2 2 2 2 2 2 3 3 3 3 4 4 5 4 3 5 5 5 4 6 8 10 11 9 12 17 21 28 32 32 30
3 5 6 6 6 6 5 5 4 3 3 2 1 1 1 1 1 2 3 2 2 3 3 5 4 4 3 5 5 4 2 3 5 5 4 3 12 20 24 28 28 28 28
3 5 5 5 5 5 5 5 4 4 4 3 2 1 1 1 1 2 3 3 2 3 4 5 4 2 2 3 6 4 2 1 1 3 5 9 15 20 22 23 24 24 24
4 5 5 5 5 5 4 3 3 3 3 2 1 1 1 1 2 2 2 2 3 5 5 4 4 3 4 4 6 5 4 5 5 7 10 13 16 18 20 21 21 22 21
4 5 5 5 5 5 5 4 4 3 2 1 1 0 1 2 2 2 2 2 3 5 6 5 4 3 5 5 4 5 5 5 5 8 11 14 16 17 18 19 19 19 19
4 4 4 4 5 5 5 5 4 3 2 1 2 4 5 5 6 5 4 4 4 4 5 6 4 3 5 5 5 5 4 5 6 9 12 14 16 17 18 18 19 18 18
3 4 5 6 6 6 7 6 5 5 5 5 6 6 6 6 6 5 5 5 5 5 3 4 4 3 3 2 3 3 4 3 5 9 11 12 14 16 17 17 17 17 17
6 6 7 7 7 7 7 7 6 7 7 7 7 7 7 6 5 5 5 6 6 6 4 3 3 3 2 1 3 3 3 2 3 6 8 11 13 15 16 17 17 19 20
7 7 7 7 7 7 7 6 6 7 7 7 7 7 7 9 8 5 4 6 7 6 5 4 3 3 3 2 1 2 3 3 2 2 4 5 6 7 10 16 19 21 22
7 7 7 7 8 6 8 10 8 8 8 8 7 7 8 10 10 9 8 9 9 6 6 5 4 4 4 3 2 1 3 4 3 1 3 4 5 6 7 10 17 21 23
6 7 6 7 7 9 11 12 12 8 8 7 7 7 8 11 12 9 10 11 10 12 10 5 4 5 5 6 4 2 1 2 2 2 2 3 4 4 4 8 14 17 20
6 5 6 6 7 9 10 10 12 9 8 7 7 6 8 9 10 9 9 9 8 8 8 5 3 4 4 5 4 2 1 2 3 2 1 2 2 3 3 4 11 13 15
5 5 5 6 7 8 10 9 8 5 5 6 6 7 7 7 11 12 10 10 10 9 9 10 6 5 7 8 6 3 3 3 1 1 1 1 1 1 2 4 7 12 13
5 6 5 5 6 7 10 10 6 3 3 3 5 6 10 10 12 12 8 8 9 8 9 9 7 6 6 7 7 4 2 1 1 1 1 1 1 0 2 2 4 5 7
Wind_Direction
223 217 211 205 208 217 227 231 235 240 243 247 248 249 252 246 241 241 245 247 237 233 236 240 242 245 251 253 252 251 251 253 252 248 241 233 224 214 204 200 197 193 189
211 192 194 193 204 214 223 228 229 231 243 243 246 246 246 245 241 237 234 235 232 235 242 247 248 249 255 258 256 254 253 254 255 254 249 238 225 214 205 201 198 195 190
207 196 195 201 210 215 222 231 233 232 245 247 249 253 252 252 252 248 243 238 239 243 246 248 249 248 253 259 261 261 260 258 256 255 253 244 228 213 203 200 199 196 190
210 201 202 212 219 221 220 225 225 229 241 243 246 254 254 252 254 252 249 246 244 243 244 247 248 246 249 256 260 263 263 263 261 260 256 248 233 214 202 199 198 195 187
222 208 212 219 220 221 226 231 225 218 236 245 246 249 251 253 253 251 243 245 244 243 244 246 244 244 248 253 255 258 261 265 267 268 262 253 239 217 202 198 196 191 184
220 206 222 233 227 228 236 235 237 234 232 238 250 255 255 256 251 241 242 244 249 249 245 240 239 245 247 248 249 251 257 263 265 266 263 257 247 221 204 198 194 189 182
262 240 242 244 236 232 235 234 235 242 244 233 238 273 276 256 245 241 237 235 247 257 254 244 236 235 241 244 244 248 253 259 263 264 263 258 249 227 207 199 193 187 179
315 289 264 257 252 248 248 242 235 239 242 217 197 211 276 304 282 252 236 230 240 254 257 249 237 233 237 243 245 247 253 256 258 261 262 259 249 232 211 201 193 184 176
316 293 273 266 260 250 251 246 237 235 240 237 203 180 194 228 282 307 261 236 239 248 253 254 243 242 244 245 248 250 252 252 255 259 261 259 249 235 215 202 193 181 172
314 304 288 276 265 255 249 249 243 230 225 235 229 214 205 178 185 281 303 278 256 249 249 251 256 259 254 245 242 242 249 255 259 262 263 259 250 236 219 200 190 175 170
326 328 316 303 283 267 256 251 245 230 219 217 215 208 215 214 194 202 263 298 315 284 263 252 254 257 252 238 227 230 246 262 269 269 266 259 248 235 217 194 181 172 172
333 339 337 333 322 308 289 270 253 235 224 213 207 196 189 200 201 196 230 263 285 292 285 264 259 252 234 212 207 216 250 274 283 284 278 261 237 218 194 181 174 171 173
337 335 339 345 350 353 353 357 8 344 234 193 200 198 199 211 198 184 209 249 271 289 294 290 276 250 208 186 193 204 252 287 299 301 293 259 208 184 173 170 171 170 173
316 323 334 347 359 8 12 22 31 26 29 31 75 116 156 240 231 208 210 223 284 300 290 281 289 253 211 187 189 188 243 293 312 320 315 197 167 161 160 163 167 168 172
313 330 341 353 0 8 13 18 26 25 30 28 30 58 99 264 258 247 233 207 207 276 281 266 262 262 208 186 186 179 188 214 79 75 94 121 137 144 149 153 158 164 169
310 323 334 344 349 353 354 356 3 5 30 19 341 350 329 266 262 262 266 247 217 231 252 258 250 240 210 203 191 173 169 145 126 116 113 121 129 135 141 148 155 162 169
305 315 323 333 337 337 334 330 324 323 323 313 310 75 46 40 19 11 350 301 244 224 238 263 257 246 212 199 171 161 151 141 141 138 132 132 137 143 150 156 163 167 172
305 307 328 351 355 355 353 347 336 341 346 30 63 61 38 32 26 10 356 332 302 269 238 258 270 252 224 202 177 166 159 161 158 163 154 152 154 158 165 170 178 184 188
27 32 46 48 38 26 17 9 15 39 59 63 60 54 39 33 23 4 359 349 329 316 273 253 267 261 245 183 160 161 168 154 167 173 174 174 173 176 181 186 193 201 206
73 67 62 55 42 30 22 20 38 57 64 64 60 52 37 26 13 358 358 353 346 342 334 311 288 292 279 220 158 157 157 157 167 169 177 184 190 192 196 201 208 214 218
85 77 66 47 32 30 20 30 47 61 63 60 51 41 33 22 11 1 356 353 355 355 349 351 350 354 357 6 203 171 158 140 122 143 155 175 181 192 203 214 218 222 224
90 82 72 58 44 31 35 65 78 68 61 57 43 22 23 23 14 18 16 14 15 10 358 355 355 1 357 348 342 153 143 140 159 145 148 177 177 192 202 208 219 222 225
101 90 78 63 49 28 48 73 82 80 72 63 54 42 42 32 29 29 27 20 13 15 20 11 5 354 345 347 352 29 79 122 147 155 141 179 185 193 194 204 213 219 224
107 100 83 67 55 31 45 78 83 74 69 58 50 48 50 36 27 32 33 21 7 358 352 360 353 332 333 334 349 5 54 76 68 31 70 187 200 202 188 195 199 198 205
102 97 88 74 62 32 41 79 97 86 72 49 34 35 40 38 23 36 36 19 11 2 356 351 331 325 339 355 6 34 42 61 45 340 354 180 226 241 212 210 205 197 188
111 103 85 70 68 50 42 57 77 89 83 39 18 21 29 30 28 37 39 27 13 346 351 9 10 347 340 342 358 23 41 75 79 288 269 196 234 326 282 237 193 195 193
Height
1546 1547 1547 1547 1547 1547 1547 1547 1547 1547 1547 1546 1546 1545 1545 1544 1543 1542 1542 1541 1541 1540 1540 1539 1538 1537 1537 1536 1535 1535 1534 1534 1533 1533 1533 1534 1535 1536 1537 1539 1541 1542 1544
1544 1545 1545 1545 1544 1544 1544 1544 1544 1544 1544 1544 1543 1543 1542 1542 1541 1539 1538 1538 1537 1537 1537 1536 1535 1534 1533 1533 1532 1531 1530 1529 1529 1528 1528 1528 1529 1530 1532 1534 1536 1538 1540
1542 1543 1542 1542 1542 1542 1541 1541 1541 1541 1541 1540 1540 1539 1539 1539 1538 1536 1535 1534 1534 1533 1533 1533 1532 1531 1530 1530 1528 1527 1526 1525 1524 1523 1523 1522 1523 1524 1526 1528 1531 1533 1536
1541 1540 1540 1539 1539 1539 1538 1538 1538 1537 1537 1537 1536 1535 1535 1535 1534 1533 1532 1531 1531 1530 1530 1529 1529 1528 1527 1526 1526 1525 1523 1522 1521 1519 1518 1517 1518 1519 1521 1523 1526 1528 1531
1538 1537 1537 1536 1536 1535 1534 1534 1533 1533 1533 1533 1532 1531 1531 1530 1530 1529 1528 1528 1528 1527 1526 1526 1525 1525 1524 1523 1523 1522 1520 1519 1517 1516 1514 1512 1512 1514 1516 1518 1521 1524 1526
1534 1534 1533 1532 1532 1530 1530 1529 1529 1529 1528 1528 1528 1526 1526 1526 1526 1525 1525 1525 1525 1524 1523 1522 1522 1521 1521 1520 1519 1518 1517 1515 1513 1511 1509 1508 1507 1508 1510 1513 1516 1519 1521
1530 1529 1528 1527 1526 1525 1524 1523 1523 1523 1522 1523 1523 1521 1521 1521 1520 1520 1520 1521 1520 1520 1519 1519 1518 1518 1517 1517 1516 1515 1513 1511 1509 1507 1504 1503 1502 1503 1505 1507 1511 1514 1516
1524 1523 1522 1521 1519 1518 1517 1516 1516 1516 1516 1517 1517 1516 1516 1516 1515 1515 1515 1515 1515 1515 1515 1515 1514 1514 1514 1513 1512 1511 1509 1507 1505 1502 1500 1498 1497 1498 1499 1502 1505 1509 1512
1518 1516 1515 1513 1512 1511 1509 1508 1509 1509 1509 1510 1512 1512 1511 1509 1509 1510 1509 1509 1510 1511 1511 1511 1511 1511 1510 1509 1508 1507 1505 1503 1500 1497 1494 1492 1492 1492 1494 1497 1500 1503 1507
1512 1510 1508 1506 1504 1503 1502 1501 1502 1502 1503 1503 1505 1506 1507 1506 1506 1504 1505 1505 1505 1506 1506 1506 1507 1507 1506 1505 1504 1503 1501 1499 1495 1492 1489 1487 1486 1487 1489 1491 1496 1499 1503
1507 1505 1502 1500 1497 1496 1495 1495 1495 1495 1496 1498 1499 1500 1501 1501 1501 1501 1499 1499 1500 1501 1501 1501 1501 1502 1501 1500 1499 1498 1497 1494 1490 1486 1483 1481 1480 1482 1484 1487 1491 1494 1499
1503 1501 1499 1496 1494 1491 1490 1489 1489 1490 1490 1492 1494 1495 1496 1496 1496 1496 1495 1494 1494 1495 1496 1497 1497 1497 1496 1495 1495 1494 1492 1489 1485 1481 1478 1475 1475 1477 1480 1483 1487 1492 1496
1500 1499 1496 1494 1491 1489 1487 1486 1486 1486 1486 1487 1489 1490 1491 1492 1493 1493 1492 1491 1490 1490 1491 1492 1492 1492 1491 1491 1490 1489 1488 1485 1481 1477 1474 1472 1471 1473 1476 1481 1485 1490 1495
1498 1497 1495 1492 1490 1488 1487 1485 1484 1483 1484 1484 1485 1486 1487 1488 1489 1489 1489 1489 1487 1487 1487 1487 1488 1488 1488 1487 1486 1485 1483 1481 1477 1474 1472 1470 1469 1471 1475 1480 1485 1490 1495
1497 1495 1493 1491 1490 1488 1487 1485 1483 1482 1482 1482 1482 1483 1483 1484 1485 1485 1486 1485 1485 1484 1483 1484 1484 1484 1484 1483 1482 1481 1480 1477 1475 1472 1471 1470 1470 1472 1476 1480 1485 1490 1495
1496 1494 1492 1490 1489 1487 1486 1485 1484 1482 1482 1481 1481 1481 1481 1482 1482 1482 1482 1482 1482 1483 1481 1480 1481 1480 1479 1479 1478 1478 1477 1475 1473 1472 1471 1471 1472 1475 1478 1482 1487 1491 1497
1495 1493 1492 1490 1488 1487 1486 1484 1483 1482 1482 1482 1481 1481 1481 1480 1480 1479 1479 1479 1479 1479 1478 1477 1477 1476 1475 1475 1475 1475 1474 1474 1472 1472 1472 1473 1475 1477 1480 1484 1488 1493 1498
1495 1493 1492 1490 1488 1487 1486 1485 1484 1483 1483 1482 1481 1481 1480 1479 1478 1477 1477 1477 1476 1475 1474 1472 1473 1473 1472 1471 1471 1472 1472 1472 1472 1472 1473 1474 1476 1479 1483 1487 1491 1495 1500
1495 1493 1492 1490 1489 1488 1486 1485 1484 1483 1483 1483 1482 1480 1479 1478 1477 1476 1475 1474 1472 1471 1470 1469 1469 1469 1468 1468 1468 1469 1470 1471 1472 1473 1474 1476 1478 1481 1485 1488 1492 1496 1499
1495 1494 1492 1490 1489 1488 1487 1486 1485 1484 1484 1483 1482 1480 1479 1478 1477 1476 1474 1472 1470 1469 1468 1467 1466 1465 1465 1464 1465 1466 1467 1469 1471 1472 1474 1476 1479 1481 1485 1488 1491 1494 1497
1496 1494 1493 1491 1490 1489 1488 1487 1486 1486 1485 1483 1482 1481 1480 1479 1478 1476 1475 1472 1470 1468 1467 1465 1464 1463 1462 1462 1462 1463 1465 1467 1469 1471 1473 1475 1478 1480 1483 1486 1488 1491 1492
1496 1495 1494 1493 1492 1490 1490 1489 1488 1487 1486 1485 1484 1483 1482 1480 1479 1478 1476 1474 1471 1469 1467 1465 1464 1462 1461 1460 1460 1461 1462 1464 1466 1469 1471 1473 1476 1477 1480 1482 1484 1486 1487
1497 1496 1495 1495 1494 1493 1492 1491 1490 1489 1488 1487 1487 1486 1484 1483 1482 1480 1478 1476 1474 1471 1469 1466 1464 1463 1462 1460 1459 1459 1461 1462 1464 1466 1468 1470 1472 1474 1476 1478 1480 1482 1483
1497 1497 1496 1496 1496 1495 1495 1494 1493 1492 1491 1490 1490 1489 1487 1486 1484 1483 1481 1479 1476 1474 1471 1469 1467 1465 1463 1462 1461 1460 1460 1461 1462 1463 1465 1467 1468 1470 1471 1472 1474 1476 1478
1497 1497 1497 1497 1497 1497 1497 1496 1496 1495 1494 1493 1492 1491 1490 1489 1487 1486 1483 1481 1479 1476 1474 1472 1471 1469 1467 1465 1463 1462 1461 1462 1462 1462 1463 1464 1464 1465 1466 1467 1468 1469 1471
1497 1497 1498 1498 1498 1498 1498 1498 1497 1496 1495 1495 1494 1493 1492 1490 1489 1487 1485 1483 1480 1478 1477 1475 1474 1472 1470 1468 1466 1465 1464 1463 1463 1463 1462 1462 1461 1461 1461 1462 1463 1463 1464